DateTimeUTC,F1_A11,F1_S11,BsB_S11,BsG_S11,BsR_S11,BbsB_S11,BbsG_S11,BbsR_S11,BaB_A11,BaG_A11,BaR_A11,Tu_S11,T_S11,Uu_S11,U_S11,P_S11,T1_A11
2021-08-04T10:00:00Z,00000200,20000000,,,,,,,0000.12,0000.09,0000.12,17.2,24.0,07.9,05.2,0670.3,30.8
2021-08-04T10:01:00Z,00000200,20000000,,,,,,,0000.09,0000.03,-000.08,17.2,24.0,07.9,05.2,0670.3,30.8
2021-08-04T10:02:00Z,00000200,20000000,,,,,,,-000.01,0000.21,0000.37,17.2,24.0,07.9,05.2,0670.3,30.8
2021-08-04T10:03:00Z,00000200,60000000,,,,,,,0000.05,0000.21,0000.07,17.2,24.0,07.9,05.2,0670.3,30.8
2021-08-04T10:04:00Z,00000200,40000000,0001.42,0000.68,0000.79,0000.25,0000.53,-000.15,0000.41,0000.45,0000.30,17.3,23.8,08.1,05.4,0671.2,30.9
2021-08-04T10:05:00Z,00000200,00000000,0000.55,0000.87,0000.86,0000.18,0000.30,0000.28,0000.41,0000.28,0000.34,17.3,23.8,08.2,05.5,0671.3,30.9
2021-08-04T10:06:00Z,00000200,00000000,0000.87,0000.60,0000.29,0000.20,0000.04,0000.06,0000.62,0000.61,0000.42,17.3,23.7,08.2,05.5,0671.3,30.8
2021-08-04T10:07:00Z,00000200,00000000,0000.50,0000.45,0000.34,0000.19,-000.12,-000.16,0000.51,0000.26,-000.03,17.3,23.7,08.3,05.6,0671.3,30.8
2021-08-04T10:08:00Z,00000200,00000000,0000.71,0000.59,0000.15,-000.08,0000.30,-000.02,0000.51,0000.25,0000.60,17.3,23.7,08.5,05.7,0671.3,30.8
2021-08-04T10:09:00Z,00000200,00000000,0001.34,0001.15,0000.34,0000.30,0000.23,0000.11,0000.35,0000.61,0000.67,17.3,23.7,08.6,05.8,0671.3,30.8
2021-08-04T10:10:00Z,00000200,00000000,0000.41,0000.69,0000.40,0000.94,0000.21,0000.06,0000.09,0000.32,-000.01,17.3,23.7,08.6,05.8,0671.3,30.8
2021-08-04T10:11:00Z,00000200,00000000,0000.07,0000.81,0000.70,0000.36,-000.04,0000.23,0000.51,0000.34,0000.47,17.3,23.7,08.9,06.0,0671.3,30.8
2021-08-04T10:12:00Z,00000200,00000000,0001.13,0000.42,0000.23,0000.19,0000.30,-000.08,0000.34,0000.26,0000.01,17.3,23.7,08.8,05.9,0671.3,30.8
2021-08-04T10:13:00Z,00000200,00000000,0000.85,0000.67,0000.52,-000.00,-000.11,-000.02,0000.53,0000.79,0000.63,17.3,23.7,09.0,06.1,0671.3,30.8
2021-08-04T10:14:00Z,00000200,00000000,0000.55,0000.37,0000.28,-000.05,0000.22,0000.12,0000.44,0000.29,0000.20,17.3,23.7,09.3,06.2,0671.3,30.9
2021-08-04T10:15:00Z,00000200,00000000,0000.30,0000.34,0000.44,0000.72,0000.10,0000.19,0000.32,0000.44,0000.72,17.3,23.7,09.3,06.3,0671.3,30.8
2021-08-04T10:16:00Z,00000200,00000000,0000.50,0000.50,0000.40,0000.67,0000.09,0000.11,0000.62,0000.32,0000.38,17.4,23.7,09.5,06.4,0671.3,30.9
2021-08-04T10:17:00Z,00000200,00000000,-000.07,0000.48,0000.10,0000.25,-000.09,-000.05,0000.17,0000.50,0000.17,17.4,23.7,09.6,06.5,0671.4,30.9
2021-08-04T10:18:00Z,00000200,00000000,0000.49,0000.70,0000.31,0000.21,0000.06,-000.05,0000.07,0000.01,-000.22,17.4,23.7,09.5,06.5,0671.4,30.9
2021-08-04T10:19:00Z,00000200,00000000,0000.79,0000.52,0000.36,0000.15,0000.13,0000.11,0000.48,0000.00,0000.40,17.5,23.7,09.5,06.4,0671.4,30.8
2021-08-04T10:20:00Z,00000200,00000000,0000.20,0000.45,0000.38,0000.70,0000.08,0000.03,0000.19,0000.49,0000.40,17.4,23.7,09.6,06.5,0671.4,30.8
2021-08-04T10:21:00Z,00000200,00000000,0000.71,0000.70,0000.37,0000.57,0000.23,-000.03,0000.64,0000.54,0000.49,17.4,23.7,09.7,06.6,0671.4,30.9
2021-08-04T10:22:00Z,00000200,00000000,0000.70,0000.53,0000.71,-000.04,0000.21,0000.15,0000.42,0000.21,-000.07,17.4,23.7,09.9,06.7,0671.4,30.9
2021-08-04T10:23:00Z,00000200,00000000,-000.22,0000.68,0000.38,0000.19,0000.15,0000.19,0000.48,0000.63,0000.79,17.4,23.7,10.1,06.8,0671.4,30.9
2021-08-04T10:24:00Z,00000200,00000000,0000.26,0000.79,0000.49,0000.85,0000.09,-000.03,0000.54,0000.77,0000.47,17.4,23.7,10.3,07.0,0671.4,30.9
2021-08-04T10:25:00Z,00000200,00000000,0000.43,0000.75,0000.59,0000.36,0000.11,0000.20,0000.81,0000.49,0000.58,17.4,23.7,10.4,07.1,0671.4,30.9
2021-08-04T10:26:00Z,00000200,00000000,0001.03,0000.74,0000.38,-000.28,-000.03,0000.10,0000.31,0000.44,0000.36,17.4,23.7,10.7,07.3,0671.4,30.9
2021-08-04T10:27:00Z,00000200,00000000,0000.84,0000.49,0000.60,0000.57,0000.28,0000.14,0000.37,0000.47,0000.40,17.4,23.7,10.8,07.4,0671.4,30.8
2021-08-04T10:28:00Z,00000200,00000000,0000.46,0000.61,0000.52,0000.25,0000.45,-000.18,0000.52,0000.40,0000.44,17.4,23.7,11.0,07.5,0671.4,30.8
2021-08-04T10:29:00Z,00000200,00000000,0000.35,0000.50,0000.21,0000.38,0000.12,-000.11,0000.17,0000.11,0000.14,17.4,23.7,11.0,07.5,0671.4,30.8
2021-08-04T10:30:00Z,00000200,00000000,0000.28,0000.51,0000.65,0000.42,-000.02,0000.01,-000.25,0000.23,-000.17,17.4,23.7,10.6,07.2,0671.4,30.8
2021-08-04T10:31:00Z,00000200,00000000,0001.01,0000.70,0000.65,0000.38,0000.30,-000.03,0000.15,-000.24,0000.38,17.5,23.7,10.4,07.1,0671.4,30.9
2021-08-04T10:32:00Z,00000200,00000000,0000.85,0000.73,0000.60,0000.30,0000.12,0000.16,0000.56,0000.36,-000.07,17.5,23.7,10.4,07.1,0671.4,30.9
2021-08-04T10:33:00Z,00000200,00000000,0000.31,0000.47,0000.43,-000.50,0000.42,-000.27,0000.51,0000.62,0000.72,17.5,23.8,10.5,07.1,0671.4,30.9
2021-08-04T10:34:00Z,00000200,00000000,0000.76,0000.63,0000.43,0000.05,0000.30,0000.34,0000.36,-000.07,-000.13,17.6,23.8,10.5,07.2,0671.4,30.9
2021-08-04T10:35:00Z,00000200,00000000,0001.30,0000.88,0000.50,0000.46,-000.20,0000.31,-000.07,0000.25,0000.11,17.6,23.8,10.2,07.0,0671.4,30.8
2021-08-04T10:36:00Z,00000200,00000000,0000.91,0001.01,0000.36,0000.46,0000.53,0000.22,0000.16,0000.20,0000.29,17.6,23.8,10.3,07.0,0671.4,30.9
2021-08-04T10:37:00Z,00000200,00000000,0000.84,0001.08,0000.60,-000.16,0000.27,-000.12,0000.88,0000.72,0000.35,17.6,23.8,10.6,07.2,0671.4,30.9
2021-08-04T10:38:00Z,00000200,00000000,0000.79,0000.72,0000.78,0000.50,0000.03,0000.08,0000.36,0000.51,0000.75,17.6,23.7,10.7,07.3,0671.4,30.9
2021-08-04T10:39:00Z,00000200,00000000,0001.21,0001.04,0000.80,0000.99,0000.59,-000.02,0000.43,0000.42,0000.31,17.5,23.7,10.8,07.4,0671.4,30.9
2021-08-04T10:40:00Z,00000200,00000000,0001.19,0000.69,0001.04,0000.04,0000.04,0000.06,0000.53,0000.23,0000.07,17.5,23.7,10.8,07.4,0671.4,30.9
2021-08-04T10:41:00Z,00000200,00000000,0001.22,0000.99,0000.36,0000.29,-000.00,-000.06,0000.37,0000.50,0000.72,17.5,23.7,10.9,07.4,0671.5,30.8
2021-08-04T10:42:00Z,00000200,00000000,0001.46,0001.15,0000.62,0000.26,0000.31,-000.10,0000.53,0000.55,0000.32,17.5,23.7,10.8,07.4,0671.4,30.8
2021-08-04T10:43:00Z,00000200,00000000,0000.50,0000.95,0000.74,0000.10,0000.08,0000.12,0000.49,0000.21,0000.06,17.5,23.7,11.0,07.5,0671.4,30.8
2021-08-04T10:44:00Z,00000200,00000000,0001.20,0000.56,0000.59,0000.25,0000.14,0000.54,-000.04,0000.08,0000.44,17.5,23.7,10.9,07.5,0671.4,30.8
2021-08-04T10:45:00Z,00000200,00000000,0000.92,0000.74,0000.56,0000.65,0000.03,-000.25,0000.23,0000.12,-000.48,17.5,23.7,10.7,07.3,0671.5,30.8
2021-08-04T10:46:00Z,00000200,00000000,0001.62,0000.94,0000.78,-000.14,0000.50,0000.15,-000.29,0000.12,0000.07,17.5,23.7,10.6,07.2,0671.4,30.9
2021-08-04T10:47:00Z,00000200,00000000,0001.08,0001.20,0000.69,-000.05,0000.30,0000.10,0000.46,-000.11,0000.28,17.5,23.7,10.3,07.0,0671.4,30.8
2021-08-04T10:48:00Z,00000200,00000000,0000.54,0001.04,0000.79,0000.10,0000.15,0000.26,0000.35,0000.54,0000.07,17.5,23.7,10.3,07.0,0671.4,30.9
2021-08-04T10:49:00Z,00000200,00000000,0001.21,0000.97,0000.41,0000.82,0000.28,0000.19,0000.18,-000.36,-000.14,17.5,23.7,10.1,06.9,0671.4,30.8
2021-08-04T10:50:00Z,00000200,00000000,0000.91,0000.74,0000.62,0000.44,0000.06,0000.13,0000.56,0000.93,0000.75,17.5,23.7,10.3,07.0,0671.4,30.9
2021-08-04T10:51:00Z,00000200,00000000,0000.40,0000.92,0000.61,0000.75,0000.06,-000.12,0000.21,0000.48,0000.31,17.5,23.7,10.3,07.0,0671.4,30.9
2021-08-04T10:52:00Z,00000200,00000000,0001.33,0001.36,0000.53,0000.52,0000.47,-000.20,0000.91,0000.76,0000.70,17.5,23.7,10.5,07.1,0671.4,30.9
2021-08-04T10:53:00Z,00000200,00000000,0001.41,0001.08,0000.62,0000.35,0000.32,-000.07,0001.39,0001.14,0000.96,17.5,23.7,11.0,07.5,0671.4,30.8
2021-08-04T10:54:00Z,00000200,00000000,0001.68,0001.11,0000.82,0000.49,0000.11,0000.05,0000.73,0000.57,0001.08,17.5,23.7,11.5,07.8,0671.5,30.8
2021-08-04T10:55:00Z,00000200,00000000,0000.84,0001.01,0000.53,0000.01,0000.29,0000.31,0000.54,0000.99,0000.91,17.5,23.7,11.8,08.0,0671.5,30.8
2021-08-04T10:56:00Z,00000200,00000000,0001.00,0000.97,0000.68,0000.34,0000.08,0000.29,0001.02,0000.77,0000.24,17.5,23.7,12.1,08.3,0671.4,30.8
2021-08-04T10:57:00Z,00000200,40000000,,,,,,,-000.87,-001.14,-001.06,17.5,23.7,12.2,08.3,0671.5,30.8
2021-08-04T10:58:00Z,00000200,60000000,,,,,,,0000.18,0000.50,0000.36,17.3,23.8,11.4,07.6,0670.5,30.8
2021-08-04T10:59:00Z,00000200,20000000,,,,,,,0000.32,0000.23,0000.20,17.3,23.9,11.6,07.7,0670.5,30.8
